Aeroporto :
LOGIN :

Iscrizione | Disclaimer

   EN    FR    IT 

 










Sommario :    VFR   VFR Marginale   IFR   IFR Intensivo   IFR Molto Intensivo
Visibilità : 
Base nubi : 
>= 8 km
>= 3000ft
5 / 8 km
1000 / 3000 ft
1500m / 5 km
500 / 1000 ft
800 / 1500m
200 / 500 ft
< 800m
< 200 ft
Simboli :   Temporali  Nebbia  Neve Forte  Precipitazioni Forti  Vento > 20 kt
SIGMETs :   Varie  Temporali  Ghiacco  Turbolenza  Onda orograficha  Ceneri Vulcaniche






- Altitudine del aeroporto : 614 ft
- Codice IATA : CRL


EBCI - Charleroi

ULTIMO METAR :
  • 202350Z 08006KT CAVOK M01/M02 Q1010 NOSIG

METARs OBSOLETI :
  • 202320Z 09005KT CAVOK M01/M02 Q1010 NOSIG
  • 202250Z 09005KT CAVOK M01/M02 Q1010 NOSIG
  • 202220Z 10007KT CAVOK M00/M02 Q1011 NOSIG
  • 202150Z 09005KT CAVOK M00/M02 Q1011 NOSIG

TAF TAF EBCI
Valido dal 21 a 00 ore il 22 a 06 ore UTC


202317Z 2100/2206 12005KT 7000 NSC
BECMG 2101/2103 BKN003
BECMG 2109/2111 BKN005
BECMG 2111/2113 8000 NSC



MetMap, La meteo Aeronautica in un colpo d'occhio ! - Copyright ORBIFLY Dicembre 2007 - Disclaimer

ORBIFLY MET'MAP TEAM :

Programmazione e sviluppo : Alexandra Zaïnal
Concezione e sviluppo : Baudouin d'Aumeries
Co-Programmazione e sviluppo : Marc-Olivier Méhu
Supporto tecnico e logistico : Manuel Goepfert
Aiuto per la traduzione : Arnaldo La Scala

Contatto : metmap@orbifly.com




FONTI E CREDITI :

   NOAA